Tracking 25689 objects as of 7-Jul-2022
HD Live streaming from Space Station
objects crossing your sky now

FENGYUN 1C DEB

Track FENGYUN 1C DEB now!
10-day predictions


NORAD ID: 33700
Int'l Code: 1999-025DGM
Perigee: 530.2 km
Apogee: 646.6 km
Inclination: 99.1 °
Period: 96.3 minutes
Semi major axis: 6959 km
RCS: 0.0108 m2 (small)
Launch date: May 10, 1999
Source: People's Republic of China (PRC)
Launch site: Taiyaun Space Center, China (TSC)

Note: This is SATELLITE DEBRIS
aabbcc
Your satellite tracking list
Your tracking list is empty




NASA's NSSDC Master Catalog

Two Line Element Set (TLE):
1 33700U 99025DGM 22186.61498956  .00018962  00000-0  16056-2 0  9991
2 33700  99.1207 140.8110 0083609  44.0035 316.7797 14.95352266375479
Source of the keplerian elements: AFSPC